TimeCST,TemperatureF,Dew PointF,Humidity,Sea Level PressureIn,VisibilityMPH,Wind Direction,Wind SpeedMPH,Gust SpeedMPH,PrecipitationIn,Events,Conditions,WindDirDegrees,DateUTC
12:14 AM,-20.2,-27.4,69,30.19,10.0,WNW,13.8,-,N/A,,Clear,290,2013-01-21 06:14:00
12:34 AM,-20.2,-27.4,69,30.18,10.0,WNW,13.8,-,N/A,,Clear,290,2013-01-21 06:34:00
12:53 AM,-20.2,-27.4,69,30.18,10.0,WNW,13.8,-,N/A,,Clear,300,2013-01-21 06:53:00
1:14 AM,-20.2,-27.4,69,30.18,10.0,WNW,11.5,-,N/A,,Clear,300,2013-01-21 07:14:00
1:34 AM,-20.2,-27.4,69,30.18,10.0,WNW,11.5,-,N/A,,Clear,300,2013-01-21 07:34:00
1:53 AM,-22.0,-27.4,76,30.18,10.0,WNW,9.2,-,N/A,,Clear,290,2013-01-21 07:53:00
2:14 AM,-22.0,-29.2,69,30.18,10.0,WNW,10.4,-,N/A,,Clear,290,2013-01-21 08:14:00
2:34 AM,-22.0,-29.2,69,30.18,10.0,WNW,9.2,-,N/A,,Clear,290,2013-01-21 08:34:00
2:53 AM,-22.0,-27.4,76,30.19,10.0,West,8.1,-,N/A,,Scattered Clouds,280,2013-01-21 08:53:00
3:14 AM,-22.0,-29.2,69,30.18,10.0,West,6.9,-,N/A,,Clear,280,2013-01-21 09:14:00
3:34 AM,-22.0,-27.4,76,30.18,10.0,West,8.1,-,N/A,,Scattered Clouds,280,2013-01-21 09:34:00
3:53 AM,-22.0,-27.4,76,30.18,10.0,West,8.1,-,N/A,,Scattered Clouds,280,2013-01-21 09:53:00
4:14 AM,-22.0,-27.4,76,30.17,10.0,West,10.4,-,N/A,,Scattered Clouds,280,2013-01-21 10:14:00
4:33 AM,-22.0,-27.4,76,30.16,10.0,WNW,11.5,-,N/A,,Scattered Clouds,290,2013-01-21 10:33:00
4:53 AM,-22.0,-27.4,76,30.16,10.0,WNW,10.4,-,N/A,,Scattered Clouds,290,2013-01-21 10:53:00
5:14 AM,-22.0,-27.4,76,30.16,10.0,WNW,10.4,-,N/A,,Clear,290,2013-01-21 11:14:00
5:53 AM,-22.0,-27.4,76,30.16,10.0,West,11.5,-,N/A,,Clear,280,2013-01-21 11:53:00
6:14 AM,-22.0,-27.4,76,30.16,10.0,West,9.2,-,N/A,,Scattered Clouds,280,2013-01-21 12:14:00
6:33 AM,-22.0,-27.4,76,30.16,10.0,West,6.9,-,N/A,,Mostly Cloudy,270,2013-01-21 12:33:00
6:53 AM,-23.8,-29.2,76,30.16,10.0,West,5.8,-,N/A,,Scattered Clouds,260,2013-01-21 12:53:00
7:14 AM,-23.8,-29.2,76,30.15,10.0,WSW,4.6,-,N/A,,Scattered Clouds,240,2013-01-21 13:14:00
7:33 AM,-23.8,-29.2,76,30.15,10.0,West,4.6,-,N/A,,Mostly Cloudy,260,2013-01-21 13:33:00
7:53 AM,-23.8,-29.2,76,30.15,10.0,WSW,4.6,-,N/A,,Scattered Clouds,250,2013-01-21 13:53:00
8:14 AM,-25.6,-31.0,76,30.15,5.0,WSW,3.5,-,N/A,,Haze,240,2013-01-21 14:14:00
8:33 AM,-25.6,-31.0,76,30.15,10.0,Calm,Calm,-,N/A,,Scattered Clouds,0,2013-01-21 14:33:00
8:53 AM,-25.6,-32.8,69,30.15,10.0,SW,3.5,-,N/A,,Scattered Clouds,230,2013-01-21 14:53:00
9:13 AM,-25.6,-31.0,76,30.16,10.0,SW,3.5,-,N/A,,Scattered Clouds,230,2013-01-21 15:13:00
9:33 AM,-23.8,-29.2,76,30.16,10.0,SW,4.6,-,N/A,,Scattered Clouds,230,2013-01-21 15:33:00
9:54 AM,-20.2,-27.4,69,30.16,10.0,West,8.1,-,N/A,,Clear,280,2013-01-21 15:54:00
10:13 AM,-18.4,-25.6,70,30.16,10.0,WNW,8.1,-,N/A,,Clear,290,2013-01-21 16:13:00
10:33 AM,-18.4,-25.6,70,30.16,10.0,WNW,10.4,-,N/A,,Clear,300,2013-01-21 16:33:00
10:54 AM,-16.6,-23.8,70,30.17,10.0,WNW,10.4,-,N/A,,Clear,290,2013-01-21 16:54:00
11:13 AM,-16.6,-23.8,70,30.16,10.0,WNW,11.5,-,N/A,,Clear,290,2013-01-21 17:13:00
11:34 AM,-14.8,-23.8,64,30.15,7.0,WNW,12.7,-,N/A,,Scattered Clouds,290,2013-01-21 17:34:00
11:54 AM,-14.8,-22.0,70,30.15,7.0,WNW,17.3,-,N/A,,Clear,290,2013-01-21 17:54:00
12:13 PM,-14.8,-23.8,64,30.14,5.0,West,18.4,-,N/A,,Haze,280,2013-01-21 18:13:00
12:34 PM,-13.0,-22.0,64,30.14,7.0,WNW,17.3,20.7,N/A,,Scattered Clouds,290,2013-01-21 18:34:00
12:54 PM,-13.0,-20.2,70,30.13,5.0,West,16.1,-,N/A,,Haze,280,2013-01-21 18:54:00
1:13 PM,-11.2,-20.2,64,30.13,5.0,WNW,15.0,-,N/A,,Haze,290,2013-01-21 19:13:00
1:34 PM,-11.2,-20.2,64,30.13,5.0,WNW,16.1,-,N/A,,Haze,290,2013-01-21 19:34:00
1:54 PM,-11.2,-20.2,64,30.13,7.0,WNW,15.0,20.7,N/A,,Scattered Clouds,300,2013-01-21 19:54:00
2:13 PM,-11.2,-20.2,64,30.12,5.0,WNW,15.0,-,N/A,,Haze,290,2013-01-21 20:13:00
2:34 PM,-11.2,-20.2,64,30.12,7.0,West,17.3,-,N/A,,Scattered Clouds,280,2013-01-21 20:34:00
2:53 PM,-11.2,-20.2,64,30.13,7.0,WNW,16.1,-,N/A,,Clear,300,2013-01-21 20:53:00
3:13 PM,-11.2,-20.2,64,30.13,7.0,WNW,13.8,-,N/A,,Clear,290,2013-01-21 21:13:00
3:33 PM,-11.2,-20.2,64,30.14,10.0,WNW,13.8,-,N/A,,Clear,290,2013-01-21 21:33:00
3:53 PM,-11.2,-20.2,64,30.14,10.0,WNW,16.1,-,N/A,,Scattered Clouds,290,2013-01-21 21:53:00
4:14 PM,-11.2,-20.2,64,30.14,5.0,West,18.4,21.9,N/A,,Haze,280,2013-01-21 22:14:00
4:53 PM,-13.0,-20.2,70,30.15,3.0,NW,13.8,-,N/A,,Haze,310,2013-01-21 22:53:00
5:14 PM,-14.8,-20.2,77,30.16,7.0,WNW,13.8,-,N/A,,Scattered Clouds,300,2013-01-21 23:14:00
5:33 PM,-14.8,-20.2,77,30.16,5.0,WNW,12.7,-,N/A,,Haze,300,2013-01-21 23:33:00
5:53 PM,-14.8,-22.0,70,30.16,10.0,WNW,10.4,-,N/A,,Scattered Clouds,300,2013-01-21 23:53:00
6:14 PM,-16.6,-23.8,70,30.16,10.0,WNW,9.2,-,N/A,,Clear,290,2013-01-22 00:14:00
6:34 PM,-16.6,-23.8,70,30.16,10.0,WNW,10.4,-,N/A,,Clear,300,2013-01-22 00:34:00
7:14 PM,-16.6,-23.8,70,30.16,10.0,WNW,8.1,-,N/A,,Clear,290,2013-01-22 01:14:00
7:34 PM,-16.6,-23.8,70,30.17,10.0,West,9.2,-,N/A,,Clear,280,2013-01-22 01:34:00
7:53 PM,-16.6,-23.8,70,30.17,10.0,West,6.9,-,N/A,,Clear,270,2013-01-22 01:53:00
8:14 PM,-18.4,-23.8,76,30.18,10.0,West,9.2,-,N/A,,Clear,280,2013-01-22 02:14:00
8:34 PM,-18.4,-25.6,70,30.17,10.0,West,9.2,-,N/A,,Clear,280,2013-01-22 02:34:00
8:53 PM,-18.4,-25.6,70,30.17,10.0,WNW,9.2,-,N/A,,Clear,300,2013-01-22 02:53:00
9:13 PM,-20.2,-25.6,76,30.17,10.0,WNW,11.5,-,N/A,,Clear,300,2013-01-22 03:13:00
9:34 PM,-20.2,-25.6,76,30.18,10.0,WNW,8.1,-,N/A,,Clear,290,2013-01-22 03:34:00
10:14 PM,-20.2,-25.6,76,30.18,10.0,West,3.5,-,N/A,,Clear,280,2013-01-22 04:14:00
10:34 PM,-20.2,-25.6,76,30.18,10.0,Calm,Calm,-,N/A,,Clear,0,2013-01-22 04:34:00
10:53 PM,-22.0,-27.4,76,30.18,10.0,Calm,Calm,-,N/A,,Clear,0,2013-01-22 04:53:00
11:13 PM,-20.2,-27.4,69,30.19,10.0,West,3.5,-,N/A,,Clear,260,2013-01-22 05:13:00
11:53 PM,-20.2,-27.4,69,30.19,10.0,WNW,6.9,-,N/A,,Clear,290,2013-01-22 05:53:00